Home   Weather   Macon   Past weeks

Flag for USA Past Weather in Macon, Georgia, USA — Yesterday and Last 2 Weeks

Now
64 °F

Clear.


Feels Like: 64 °F
Forecast: 55 / 80 °F
Wind: No wind

Location: Middle Georgia Regional Airport

Current Time: Feb 23, 2017 at 8:24:22 pm

Latest Report: Feb 23, 2017 at 7:53 pm


Visibility: 10 mi

Pressure: 29.83 "Hg

Humidity: 65%

Dew Point: 52 °F

Location of MaconLocation

Past Weather in Macon — Graph

°F

Macon Temperature Yesterday

Maximum temperature yesterday: 71 °F (at 2:09 pm)
Minimum temperature yesterday: 60 °F (at 11:53 pm)
Average temperature yesterday: 65 °F

High & Low Weather Summary for the Past Weeks

 TemperatureHumidityPressure
High76 °F (Feb 11, 3:53 pm)100% (Feb 23, 7:40 am)30.47 "Hg (Feb 23, 7:40 am)
Low31 °F (Feb 10, 6:53 am)18% (Feb 16, 12:53 pm)29.56 "Hg (Feb 15, 8:53 am)
Average58 °F66%30.01 "Hg
* Reported Feb 8 6:53 pm — Feb 23 6:53 pm, Macon, Weather by CustomWeather, © 2017

Note: Actual official high and low records may vary slightly from our data, if they occured in-between our weather recording intervals... More about our weather records

Advertising

Macon Weather History for the Previous 24 Hours

Scroll right to see more
 ConditionsComfort  
Time TempWeatherWind HumidityBarometerVisibility
6:53 pm
Thu, Feb 23
69 °FClear.5 mph55%29.81 "Hg10 mi
5:53 pm72 °FPassing clouds.9 mph53%29.79 "Hg10 mi
4:53 pm71 °FScattered clouds.8 mph59%29.79 "Hg10 mi
3:53 pm76 °FPartly sunny.No wind45%29.79 "Hg10 mi
2:53 pm74 °FScattered clouds.8 mph50%29.79 "Hg10 mi
1:53 pm74 °FPartly sunny.8 mph50%29.81 "Hg10 mi
1:00 pm75 °FPartly sunny.10 mph54%29.84 "Hg10 mi
11:53 am72 °FPartly sunny.14 mph66%29.86 "Hg10 mi
11:27 am72 °FPartly sunny.12 mph66%29.88 "Hg10 mi
10:53 am69 °FPassing clouds.10 mph73%29.88 "Hg10 mi
9:53 am66 °FSunny.9 mph78%29.89 "Hg10 mi
9:07 am63 °FPassing clouds.8 mph84%29.90 "Hg10 mi
8:53 am62 °FSunny.7 mph86%29.88 "Hg10 mi
7:53 am56 °FSunny.3 mph97%29.88 "Hg7 mi
7:40 am55 °FSunny.5 mph100%29.88 "Hg7 mi
6:53 am57 °FClear.5 mph93%29.85 "Hg8 mi
5:53 am59 °FPassing clouds.3 mph93%29.84 "Hg9 mi
5:23 am60 °FLight rain. Mostly cloudy.3 mph90%29.85 "Hg9 mi
4:53 am59 °FPassing clouds.No wind93%29.83 "Hg10 mi
4:02 am58 °FOvercast.5 mph97%29.83 "Hg10 mi
3:53 am59 °FMostly cloudy.6 mph93%29.82 "Hg10 mi
2:53 am59 °FMostly cloudy.6 mph93%29.83 "Hg10 mi
2:17 am59 °FPassing clouds.8 mph93%29.83 "Hg10 mi
1:53 am59 °FPassing clouds.8 mph93%29.82 "Hg10 mi
1:19 am58 °FOvercast.7 mph93%29.84 "Hg8 mi
12:53 am60 °FOvercast.7 mph93%29.84 "Hg10 mi
11:53 pm
Wed, Feb 22
60 °FPassing clouds.6 mph93%29.85 "Hg10 mi
11:12 pm61 °FPassing clouds.7 mph93%29.85 "Hg10 mi
10:53 pm61 °FPartly cloudy.7 mph93%29.85 "Hg10 mi
9:53 pm62 °FPassing clouds.8 mph90%29.86 "Hg10 mi
8:53 pm63 °FOvercast.8 mph90%29.85 "Hg10 mi
8:26 pm64 °FOvercast.8 mph87%29.86 "Hg10 mi
8:06 pm64 °FMostly cloudy.9 mph87%29.86 "Hg10 mi
Weather by CustomWeather, © 2017

See weather overviewHow to use our weather pages